Regional Weather Roundup
Issued by NWS

Home | Current Version | Previous Version | Graphics & Text | Print | Product List | Glossary On
Versions: 1 2 3 4 5 6 7 8 9 10 11 12 13 14 15 16 17 18 19 20 21 22 23 24 25 26 27 28 29 30 31 32 33 34 35 36 37 38 39 40 41 42 43 44 45 46 47 48 49 50
000
ASUS43 KDTX 302210
RWRMI
MICHIGAN HOURLY REGIONAL WEATHER ROUNDUP
NATIONAL WEATHER SERVICE DETROIT/PONTIAC MI
600 PM EDT FRI OCT 30 2020

NOTE: "FAIR" INDICATES FEW OR NO CLOUDS BELOW 12,000 FEET WITH NO
SIGNIFICANT WEATHER AND/OR OBSTRUCTION TO VISIBILITY.

MIZ047>049-052>055-059>063-066>070-074>076-081>083-302300-
SOUTHEAST LOWER MICHIGAN

CITY           SKY/WX    TMP DP  RH WIND       PRES   REMARKS
ADRIAN         CLOUDY    39  23  52 N7        30.28R WCI  34
ALMA           CLOUDY    37  20  50 NW3       30.30R
ANN ARBOR      CLOUDY    38  21  50 NW7       30.27R WCI  33
BAD AXE        FAIR      33  22  63 CALM      30.27R
CARO           CLOUDY    35  22  59 W8        30.27S WCI  28
DETROIT CITY   CLOUDY    38  22  52 NW10      30.28R WCI  31
DETROIT        CLOUDY    37  24  59 N7        30.28R WCI  32
FLINT          CLOUDY    37  22  54 NW10      30.29R WCI  30
GROSSE ILE     CLOUDY    38  24  56 N9        30.27R WCI  32
HILLSDALE      CLOUDY    37  26  62 NW5       30.25R WCI  34
HOWELL         CLOUDY    35  26  69 N3        30.27R

CITY           SKY/WX    TMP DP  RH WIND       PRES   REMARKS
JACKSON        CLOUDY    38  23  55 NW8       30.27R WCI  32
LAMBERTVILLE   CLOUDY    40  25  54 N8        30.28R WCI  35
LANSING        CLOUDY    36  21  54 N8        30.29R WCI  30
LAPEER         CLOUDY    35  26  69 NW5       30.28R WCI  31
MASON          CLOUDY    36  22  56 NW6       30.28R WCI  31
MONROE         CLOUDY    38  23  53 N6        30.27R WCI  34
MT. CLEMENS    CLOUDY    36  24  61 NW12      30.26R WCI  28
PONTIAC        CLOUDY    35  23  61 NW7       30.26R WCI  29
PORT HOPE        N/A     36  21  54 W7        30.26R WCI  30
PORT HURON     CLOUDY    34  19  55 W7        30.28R WCI  28
TRI CITIES     CLOUDY    36  18  48 NW8       30.30R WCI  30
MIDLAND        CLOUDY    36  23  59 W6        30.28R WCI  32
TROY           CLOUDY    38  25  60 N7        30.29S WCI  32
SAGINAW HB     CLOUDY    36  27  69 NW7       30.29R WCI  30
$$
MIZ043>046-050>051-056>058-064>065-071>073-077>080-302300-
SOUTHWEST LOWER MICHIGAN

CITY           SKY/WX    TMP DP  RH WIND       PRES   REMARKS
BATTLE CREEK   CLOUDY    38  25  59 NW7       30.28R WCI  33
BENTON HARBOR  CLOUDY    41  29  62 VRB7      30.29R
BIG RAPIDS     CLOUDY    35  24  63 NW6       30.28R WCI  30
COLDWATER      CLOUDY    38  26  62 NW7       30.28R WCI  33
FREMONT        CLOUDY    36  25  65 NW3       30.29S
HOLLAND        CLOUDY    39  23  52 VRB3      30.30R
GRAND RAPIDS   CLOUDY    37  23  56 N10       30.30R WCI  30
IONIA          CLOUDY    35  21  56 N7        30.28R WCI  30
KALAMAZOO      CLOUDY    38  25  59 NW5       30.29R WCI  34
LUDINGTON      CLOUDY    35  24  62 NW6       30.30S WCI  30
MARSHALL       CLOUDY    38  25  59 NW3       30.27R
MOUNT PLEASANT CLOUDY    37  22  55 CALM      30.28R
MUSKEGON       CLOUDY    39  24  55 N6        30.31R WCI  35
SOUTH HAVEN    CLOUDY    38  27  65 NE5       30.29S WCI  34
$$
MIZ016>042-302300-
NORTHERN LOWER MICHIGAN

CITY           SKY/WX    TMP DP  RH WIND       PRES   REMARKS
ALPENA         FAIR      33  16  49 N8        30.27R WCI  26
BEAVER ISLAND  CLOUDY    36  22  57 NW8       30.28R WCI  29
BELLAIRE       CLOUDY    34  20  56 NE6       30.29S WCI  29
CADILLAC       CLOUDY    33  20  60 NW3       30.25R
CHARLEVOIX     CLOUDY    35  21  57 CALM      30.29R
FRANKFORT      CLOUDY    36  23  59 CALM      30.30R
GAYLORD        CLOUDY    30  20  66 VRB6      30.25R WCI  24
GRAYLING       CLOUDY    32  21  64 N7        30.26R WCI  26
HARBOR SPRINGS CLOUDY    32  20  60 NW3       30.28S
HOUGHTON LAKE  CLOUDY    32  21  64 NW8       30.27R WCI  25
MANISTEE       CLOUDY    35  24  64 NW3       30.30R
OSCODA         FAIR      33  23  64 E5        30.26S WCI  29
PELLSTON       CLOUDY    34  21  59 N7        30.28R WCI  28
ROGERS CITY    FAIR      34  18  53 W5        30.28S WCI  29
TRAVERSE CITY  HAIL      35  28  75 S3        30.28R
$$
MIZ007>008-015-302300-
EASTERN UPPER MICHIGAN

CITY           SKY/WX    TMP DP  RH WIND       PRES   REMARKS
KINROSS        CLOUDY    31  20  63 NW7       30.28R WCI  24
MACKINAC ISLAN CLOUDY    32  18  57 NW6       30.27R WCI  26
NEWBERRY       CLOUDY    34  21  60 NW7       30.26R WCI  28
S. S. MARIE    CLOUDY    34  19  54 NW10G18   30.25R WCI  26
MUNISING         N/A     36  22  56 W5        30.27R WCI  32
$$
MIZ004>006-011>014-085-302300-
CENTRAL UPPER MICHIGAN

CITY           SKY/WX    TMP DP  RH WIND       PRES   REMARKS
MANISTIQUE     MOCLDY    34  19  53 CALM      30.27S
ESCANABA       FAIR      36  20  52 SE8       30.28S WCI  30
MENOMINEE      FAIR      37  16  42 W3        30.30R
SAWYER-GWINN   CLEAR     34  19  55 NW5       30.24R WCI  30
$$
MIZ001>003-009>011-084-302300-
WESTERN UPPER MICHIGAN

CITY           SKY/WX    TMP DP  RH WIND       PRES   REMARKS
IRON MOUNTAIN  FAIR      37  16  42 W5        30.24R WCI  33
HOUGHTON       FAIR      36  21  54 W9        30.21S WCI  29
COPPER HARBOR    N/A     37  23  56 VRB5      30.22S WCI  33
IRONWOOD       FAIR      38  21  50 SW3       30.21F
$$

ABBREVIATIONS USED IN REMARKS
   TC - TEMPERATURE IN CELSIUS
  WCI - WIND CHILL INDEX
   HX - HEAT INDEX
  VSB - VISIBILITY





USA.gov is the U.S. government's official web portal to all federal, state and local government web resources and services.